Simultaneous Nadir Overpasses (SNOs) Predictions

Prediction of SNOs between GOES-16 and NOAA-19 Satellite Orbit:

Table of predicted SNOs for the next 14.0 days since TLE Epoch: 1/6/2017
Index Date Time (GOES-16) GOES-16 Lat,Lon NOAA-19 Lat,Lon Distance(km) Time Diff (sec)
1 01/06/2017 20:50:08 -0.02, -89.47 0.46, -87.29 247.87 80
2 01/09/2017 09:11:45 0.03, -89.49 0.69, -92.46 338.25 80
3 01/10/2017 09:00:21 0.03, -89.50 0.05, -89.68 20.58 80
4 01/11/2017 08:46:16 0.03, -89.50 -0.58, -86.90 297.28 80
5 01/13/2017 21:08:01 -0.03, -89.54 -0.62, -92.08 290.65 80
6 01/14/2017 20:56:37 -0.03, -89.55 0.04, -89.31 27.94 80
7 01/15/2017 20:45:11 -0.03, -89.57 0.64, -86.53 346.55 80
8 01/18/2017 09:09:31 0.03, -89.61 0.52, -91.69 237.63 80
9 01/19/2017 08:55:27 0.03, -89.63 -0.12, -88.92 81.25 80
10 01/20/2017 08:44:02 0.03, -89.65 -0.77, -86.14 400.24 80




NCC Satellite Simultaneous Nadir Overpasses (SNOs) Prediction Service
